Погода в Кочубее

Россия / Ставропольский край     44°58′43″N   45°12′11″E
темп.,
°C
ветер,
м/с
пор.,
м/с
влажн.,
%
обл.,
%
осадки,
мм/ч
давл.,
гПа
погр.,
м
8 августа, пн
пн800:00+23в2245100 0.0 101115
03:00+24ссв3345100 0.0 101167
06:00+24ссв2350100 0.0 101267
09:00+25св364497 0.0 1013272
12:00+32вюв452195 0.0 10132893
15:00+32юв34214 0.0 10132747
18:00+31ююв54240 0.0 10131288
21:00+25ю473215 0.0 1014109
9 августа, вт
вт900:00+23зюз33480 0.0 101422
03:00+21сз11521 0.0 101411
06:00+23в22475 0.0 101520
09:00+29вюв34280 0.0 1015997
12:00+33вюв452131 0.0 10143352
15:00+34вюв76191 0.0 10133276
18:00+32юв66233 0.0 10132318
21:00+26юв49362 0.0 1014189
10 августа, ср
ср1000:00+24юв47440 0.0 1013118
03:00+22вюв33590 0.0 101335
06:00+23в37630 0.0 1013225
09:00+30в79320 0.0 10131519
12:00+34вюв910250 0.0 10112622
15:00+34вюв1111220 0.0 10102547
18:00+31вюв913320 0.0 10101568
21:00+26в613440 0.0 1011517
11 августа, чт
чт1100:00+25в513560 0.0 1010449
03:00+25в614552 0.0 1009454
06:00+25в715625 0.0 1009531
09:00+33вюв1014285 0.0 10091661
12:00+36вюв1214245 0.0 10082564
15:00+35вюв12142490 0.0 10082181
18:00+32вюв1014335 0.0 10101182
21:00+28в9164035 0.0 1011667
12 августа, пт
пт1200:00+27в916508 0.0 1011644
03:00+26в7164849 0.3 1012517
06:00+26в5145216 0.5 1013531
09:00+34в912235 0.5 10121572
12:00+37в1012174 0.0 10122595
15:00+36вюв1213160 0.0 10122434
18:00+33вюв913210 0.0 10131463
21:00+28в714340 0.0 1013446